STARLINK-34285, 65101

Orbit data source: Space-Track

STARLINK-34285, 65101 is a payload satellite owned by SpaceX/Seattle (US) in LEO that was launched on Mon, 04 Aug 2025 UTC via an FALCON 9 launch vehicle from the Air Force Eastern Test Range (AFETR). Payload-class satellites include a variety of spacecraft equipped with specific instruments for various scientific and technological missions. These include communications satellites like Starlink; space stations such as the ISS; scientific satellites like the Hubble; Earth observation satellites from companies like Planet Labs, Umbra, and HawkEye 360; GPS; miniature CubeSats for education and research; and military/defense satellites.

Loading next visibility...
Identifier
65101, 2025-167Z
Orbit
LEO
Country
Flag of USUS
Related business
Manufacturer
SpaceX/Seattle
Mission
Operational Commercial Communications
Bus & Motor
STARLINK V2MO, Unknown motor
Mass
575 kg wet, ~530 kg dry
Launch date (UTC)
2025-08-04 (11 months ago)
Launch vehicle
FALCON 9
Launch site
Air Force Eastern Test Range (AFETR)
Object type
Payload
Rocket body
Debris
Shape & HBR
Box + 2 Pan, 17.7 m
Radar Cross Section
36.964 m², Large (>1 m²)

Expand to show TLE details & history
Last TLE update: 2 days ago

TLE from 2 days ago
0 STARLINK-34285
1 65101U 25167Z   26173.42765137  .00023839  00000-0  71463-3 0  9997
2 65101  53.1595 258.8887 0001150  80.8103 279.3030 15.34391791 49534
Epoch: 2026-06-22T10:15Z
TLE epoch observation values (Epoch: 2026-06-22T10:15:49.078Z)
Latitude
0.00001°
Longitude
-165.6795°
Altitude
463.502 km
Speed
7.636 km/s
True Right ascension
17h 15m 33s
True Declination
0° 00' 00"
Sunlit
Object was in full shadow at epoch
Visualization orbit readout
Latitude
Unknown
Longitude
Unknown
Altitude
Unknown
Speed
Unknown
Apparent Right ascension
Unknown
Apparent Declination
Unknown
Sunlit
N/A
Visualization observer readout
Local Sidereal Time
13:51:53
Azimuth
Unknown
Elevation
Unknown
Doppler factor
Unknown
Orbital elements
Apogee altitude
463.771 km
Perigee altitude
462.198 km
Semi-major axis
6,841.122 km
Eccentricity
0.00012
Inclination
53.1595°
RAAN
258.8887°
Arg. of periapsis
80.8103°
True anomaly
279.28999°
Mean anomaly
279.303°
Eccentric anomaly
279.2965°
Mean motion
3.83577 °/min
Orbital period
93.85 mins
BSTAR
0.00071463
Loading maneuver chart data...
Computing Atmospheric mass density...
Loading historical data...
Loading historical data...
Loading historical data...
Loading historical data...
Loading historical data...
Loading historical data...
Loading historical data...

Documentation

Showing up to 5 results
|